Weather History for Lafayette, IN

Change the Weather History Date:

Friday, March 9, 2012

  Actual Average Record
Temperature  
Mean Temperature 37 °F 38 °F  
Max Temperature 45 °F 47 °F 69 °F (1974)
Min Temperature 28 °F 29 °F -3 °F (1984)
Degree Days  
Heating Degree Days 28 27  
Month to date heating degree days 196 256  
Since 1 July heating degree days 3860 4590  
Cooling Degree Days 0 0  
Month to date cooling degree days 0 0  
Year to date cooling degree days 0 0  
Moisture  
Dew Point 16 °F    
Average Humidity 45    
Maximum Humidity 69    
Minimum Humidity 20    
Precipitation  
Precipitation 0.00 in 0.08 in 1.47 in (2006)
Month to date precipitation 0.89 0.74  
Year to date precipitation 4.44 4.36  
Sea Level Pressure  
Sea Level Pressure 30.45 in    
Wind  
Wind Speed 11 mph (NNW)    
Max Wind Speed 23 mph    
Max Gust Speed 30 mph    
Visibility 10 miles    
Events      
T = Trace of Precipitation, MM = Missing Value Source: NWS Daily Summary

Daily Weather History Graph

Daily Weather History Graph

Search for Another Location

Airport:

Trip Planner

Search our weather history database for the weather conditions in past years. The results will help you decide how hot, cold, wet, or windy it might be!

Date:

Astronomy

Mar. 09, 2012 Rise Set
Actual Time 7:08 AM EST 6:48 PM EST
Civil Twilight 6:41 AM EST 7:15 PM EST
Nautical Twilight 6:09 AM EST 7:47 PM EST
Astronomical Twilight 5:37 AM EST 8:19 PM EST
Moon 8:48 PM EST (3/9) 7:26 AM EST (3/9)
Length of Visible Light 12h 34m
Length of Day
11h 40m
Full, 98% of the Moon is Illuminated
Mar 9
Full
Mar 14
Last Quarter
Mar 22
New
Mar 30
First Quarter
Apr 6
Full

Hourly Weather History & Observations

Time (EST) Temp. Windchill Dew Point Humidity Pressure Visibility Wind Dir Wind Speed Gust Speed Precip Events Conditions
12:54 AM 36.0 °F 28.0 °F 24.1 °F 62% 30.32 in 10.0 mi WNW 11.5 mph - N/A   Clear
1:54 AM 36.0 °F 29.6 °F 23.0 °F 59% 30.32 in 10.0 mi West 8.1 mph - N/A   Clear
2:54 AM 36.0 °F 30.3 °F 23.0 °F 59% 30.30 in 10.0 mi WSW 6.9 mph - N/A   Clear
3:54 AM 37.9 °F 31.5 °F 21.9 °F 53% 30.29 in 10.0 mi West 9.2 mph - N/A   Partly Cloudy
4:54 AM 39.0 °F 30.3 °F 21.9 °F 50% 30.32 in 10.0 mi WNW 16.1 mph 28.8 mph N/A   Partly Cloudy
5:54 AM 36.0 °F 27.1 °F 23.0 °F 59% 30.35 in 10.0 mi WNW 13.8 mph - N/A   Clear
7:54 AM 34.0 °F 26.6 °F 24.1 °F 67% 30.40 in 10.0 mi NW 9.2 mph - N/A   Clear
8:54 AM 36.0 °F 24.7 °F 17.1 °F 46% 30.44 in 10.0 mi NNW 21.9 mph 27.6 mph N/A   Clear
9:54 AM 37.0 °F 27.4 °F 19.9 °F 50% 30.47 in 10.0 mi NNW 17.3 mph 24.2 mph N/A   Clear
10:54 AM 39.0 °F 29.6 °F 16.0 °F 39% 30.49 in 10.0 mi NNW 18.4 mph 24.2 mph N/A   Clear
11:54 AM 39.9 °F 32.1 °F 15.1 °F 36% 30.51 in 10.0 mi NNW 13.8 mph 24.2 mph N/A   Clear
12:54 PM 43.0 °F 35.1 °F 14.0 °F 31% 30.51 in 10.0 mi NW 17.3 mph 21.9 mph N/A   Clear
1:54 PM 43.0 °F 36.8 °F 10.0 °F 26% 30.50 in 10.0 mi NW 11.5 mph 24.2 mph N/A   Clear
2:54 PM 44.1 °F 37.7 °F 8.1 °F 23% 30.49 in 10.0 mi NNW 12.7 mph 24.2 mph N/A   Clear
3:54 PM 45.0 °F 39.7 °F 10.0 °F 24% 30.50 in 10.0 mi NNW 10.4 mph - N/A   Clear
4:54 PM 44.1 °F 38.1 °F 7.0 °F 22% 30.49 in 10.0 mi NNW 11.5 mph - N/A   Clear
5:54 PM 42.1 °F 35.7 °F 6.1 °F 23% 30.50 in 10.0 mi North 11.5 mph - N/A   Clear
6:54 PM 37.9 °F 31.5 °F 8.1 °F 29% 30.51 in 10.0 mi NNE 9.2 mph - N/A   Clear
7:54 PM 35.1 °F 28.6 °F 14.0 °F 42% 30.53 in 10.0 mi ENE 8.1 mph - N/A   Clear
8:54 PM 33.1 °F 26.9 °F 12.9 °F 43% 30.54 in 10.0 mi ENE 6.9 mph - N/A   Clear
9:54 PM 32.0 °F 26.4 °F 12.9 °F 45% 30.55 in 10.0 mi ENE 5.8 mph - N/A   Clear
10:54 PM 30.0 °F 26.5 °F 14.0 °F 51% 30.56 in 10.0 mi ENE 3.5 mph - N/A   Clear
11:54 PM 28.9 °F 22.8 °F 15.1 °F 56% 30.55 in 10.0 mi East 5.8 mph - N/A   Clear